Zurück zum Katalog

STARLINK-32800

AktivKommunikationVLEO
NORAD 62743·PAYLOAD·🇺🇸 United States

Gestartet Jan 21, 2025 von Cape Canaveral Space Force Station

Loading…

Nächste Überflüge (nächste 24 Stunden)

TLE

AktuellSource: CelesTrak SupGP

Epoche: Sep 14, 2026, 20:45 UTC

1 62743C 25014J   26257.86506944 -.00018360  00000+0 -66490-3 0  2572
2 62743  42.9994 173.3680 0001374 263.4328 123.7940 15.27592104    15

Verfolge STARLINK-32800 in Echtzeit mit AllMySat

Download on the App Store